Location: Winter Haven
(28.0220°N, 81.7330°W)
Time: 10:01:33
(UTC-05:00)

Amateur Radio Satellites - All Passes

Search period start: 19 January 2017 09:31
Search period end: 20 January 2017 09:31
Location: Winter Haven, 28.0220°N, 81.7330°W

Satellite Date Start Highest point End Downlink Frequencies (MHz)
Time Altitude Azimuth
Oscar 11 19 Jan 09:33:24 09:37:45 70° 283° (WNW) 09:42:04 145.826/435.025
COMPASS 1 19 Jan 09:34:07 09:36:47 17° 289° (WNW) 09:39:27 437.405
CUBEBUG 2 19 Jan 09:38:15 09:41:09 18° 288° (WNW) 09:44:06 437.445
DELFI C3 19 Jan 09:40:15 09:43:57 37° 99° (E) 09:47:38 145.870
JAS-2 19 Jan 09:42:46 09:45:42 15° 66° (ENE) 09:48:45 435.910
AAUSAT CUBESAT 2 19 Jan 09:47:04 09:49:31 15° 289° (WNW) 09:51:58 437.432
GONETS M04 19 Jan 09:47:49 09:51:49 14° 279° (W) 09:55:51
PCSat 19 Jan 10:00:17 10:04:07 19° 57° (ENE) 10:07:56 145.827
HO-68 19 Jan 10:01:00 10:04:13 14° 299° (WNW) 10:07:26 435.675
FUNcube-1 19 Jan 10:08:47 10:12:18 24° 287° (WNW) 10:15:51 145.935
UWE-3 19 Jan 10:10:42 10:12:29 12° 290° (WNW) 10:14:18 435.000/436.395/437.385
UNISAT 6 19 Jan 10:10:47 10:15:03 66° 259° (W) 10:19:16 437.425
PRISM 19 Jan 10:14:30 10:16:39 14° 264° (W) 10:18:49 437.425
QB50P1 19 Jan 10:23:11 10:23:39 10° 69° (ENE) 10:24:08 145.935-145.965
TIGRISAT 19 Jan 10:24:44 10:28:51 46° 260° (W) 10:32:56 435.000
POLYITAN 1 19 Jan 10:25:56 10:27:20 11° 69° (ENE) 10:28:44 437.675
QB50P2 19 Jan 10:26:35 10:28:30 13° 70° (ENE) 10:30:25 145.880/145.840
RS-15 19 Jan 10:31:18 10:43:17 65° 250° (WSW) 10:54:41 29.354- 29.394
ZACube-1 19 Jan 10:32:51 10:34:24 12° 291° (WNW) 10:35:57 437.345
ANTELSAT 19 Jan 10:40:07 10:43:47 28° 262° (W) 10:47:26 437.575/2403.000
BY70-1 19 Jan 10:45:42 10:48:15 21° 96° (E) 10:50:39 436.1900
POPSAT HIP 1 19 Jan 10:47:03 10:50:14 21° 72° (ENE) 10:53:26 437.405
HUMSAT D 19 Jan 10:53:32 10:57:36 44° 285° (WNW) 11:01:41 437.325/437.525
DUCHIFAT 1 19 Jan 10:59:16 11:02:44 26° 73° (ENE) 11:06:11 145.980
NANOSAT C BR1 19 Jan 11:03:46 11:07:32 33° 74° (ENE) 11:11:16 145.865
DELFI C3 19 Jan 11:17:29 11:18:20 11° 291° (WNW) 11:19:11 145.870
ESTCUBE 1 19 Jan 11:24:04 11:28:17 38° 99° (E) 11:32:29 437.505/2401.250
JAS-2 19 Jan 11:25:20 11:30:17 45° 261° (W) 11:35:31 435.910
BUGSAT 1 19 Jan 11:39:22 11:42:45 25° 73° (ENE) 11:46:06 437.445
VELOX 1 19 Jan 11:41:59 11:45:06 19° 96° (E) 11:48:13 145.980
PCSat 19 Jan 11:42:31 11:47:37 43° 251° (WSW) 11:52:41 145.827
QB50P1 19 Jan 11:54:57 11:58:57 44° 260° (W) 12:02:59 145.935-145.965
POLYITAN 1 19 Jan 11:58:47 12:02:42 39° 260° (W) 12:06:39 437.675
QB50P2 19 Jan 12:00:04 12:03:55 35° 261° (W) 12:07:46 145.880/145.840
Cosmos 2491 19 Jan 12:07:13 12:09:24 11° 69° (ENE) 12:11:36 435.465 / 435.565
50 SAT 19 Jan 12:13:06 12:16:19 32° 99° (E) 12:19:29 437.505
BY70-1 19 Jan 12:17:29 12:18:16 11° 291° (WNW) 12:19:02 436.1900
DX 1 19 Jan 12:18:08 12:21:33 23° 97° (E) 12:24:58 434.975-435.025
SPROUT 19 Jan 12:19:34 12:23:35 40° 99° (E) 12:27:35 437.525
UKube-1 19 Jan 12:20:24 12:23:10 17° 96° (E) 12:25:56 .
JUGNU 19 Jan 12:21:14 12:23:55 13° 160° (SSE) 12:26:37 437.505
POPSAT HIP 1 19 Jan 12:22:42 12:25:51 21° 263° (W) 12:29:01 437.405
CUBEBUG 1 19 Jan 12:30:49 12:35:02 53° 284° (WNW) 12:39:12 437.445
DUCHIFAT 1 19 Jan 12:35:37 12:38:19 17° 264° (W) 12:41:02 145.980
NANOSAT C BR1 19 Jan 12:41:15 12:43:15 13° 265° (W) 12:45:14 145.865
AISAT 19 Jan 12:43:45 12:48:05 63° 284° (WNW) 12:52:24 437.250
ESTCUBE 1 19 Jan 13:02:22 13:04:41 14° 291° (WNW) 13:07:00 437.505/2401.250
Oscar 19 19 Jan 13:08:12 13:13:21 72° 76° (ENE) 13:18:33 437.125/150
Gurwin Techsat 1B 19 Jan 13:12:46 13:17:38 38° 73° (ENE) 13:22:31 435.225
BUGSAT 1 19 Jan 13:15:27 13:18:01 16° 264° (W) 13:20:35 437.445
VELOX 1 19 Jan 13:17:50 13:21:27 25° 288° (WNW) 13:25:03 145.980
ITAMSAT 1 19 Jan 13:50:55 13:53:53 16° 67° (ENE) 13:56:49 435.822/435.867
TISAT 1 19 Jan 13:51:45 13:55:53 67° 101° (ESE) 14:00:02 437.305
DX 1 19 Jan 13:54:19 13:57:33 21° 289° (WNW) 14:00:47 434.975-435.025
UKube-1 19 Jan 13:55:29 13:59:08 28° 288° (WNW) 14:02:47 .
YUBILEINY 19 Jan 13:56:35 14:04:42 43° 89° (E) 14:12:50 435.215
SPROUT 19 Jan 13:57:38 13:59:05 12° 291° (WNW) 14:00:31 437.525
Cosmos 2491 19 Jan 13:58:29 14:07:19 83° 85° (E) 14:16:09 435.465 / 435.565
BEESAT 19 Jan 13:59:16 14:01:02 12° 95° (E) 14:02:48 436.000
SWISSCUBE 19 Jan 14:00:01 14:02:36 14° 95° (E) 14:05:10 437.505
AO-85 19 Jan 14:00:51 14:05:48 84° 298° (WNW) 14:10:22 145.980
AO-7 19 Jan 14:02:34 14:09:02 26° 62° (ENE) 14:15:29 29.400- 29.500
Cosmos 2504 19 Jan 14:02:38 14:09:04 23° 85° (E) 14:15:16 435.465 / 435.565
JUGNU 19 Jan 14:07:32 14:12:25 27° 168° (SSE) 14:17:20 437.505
CUSAT 1 19 Jan 14:08:05 14:15:24 39° 76° (ENE) 14:21:59 437.405
AIST 1 19 Jan 14:14:15 14:18:39 81° 93° (E) 14:23:01
DANDE 19 Jan 14:45:32 14:52:22 30° 76° (ENE) 14:59:19 436.750
Gurwin Techsat 1B 19 Jan 14:53:59 14:57:36 18° 264° (W) 15:01:13 435.225
ITUPSAT 1 19 Jan 14:58:46 15:03:33 63° 101° (E) 15:08:18 437.325
BRITE-PL 19 Jan 15:22:56 15:24:00 11° 66° (ENE) 15:25:03 437.365/2234.400
ITAMSAT 1 19 Jan 15:27:58 15:32:53 46° 260° (W) 15:37:51 435.822/435.867
BEESAT 19 Jan 15:34:20 15:38:56 48° 286° (WNW) 15:43:32 436.000
SRMSAT 19 Jan 15:35:15 15:39:24 19° 163° (SSE) 15:43:33 437.500
SWISSCUBE 19 Jan 15:35:57 15:40:26 40° 287° (WNW) 15:44:55 437.505
MOZHAYETS 4 19 Jan 15:39:47 15:44:19 51° 100° (E) 15:48:48
CUSAT 1 19 Jan 15:50:11 15:57:03 34° 272° (W) 16:03:15 437.405
AO-7 19 Jan 15:53:03 16:01:10 57° 256° (WSW) 16:09:23 29.400- 29.500
Cosmos 2504 19 Jan 15:53:12 16:01:49 58° 278° (W) 16:10:05 435.465 / 435.565
YUBILEINY 19 Jan 15:53:54 16:01:26 32° 283° (WNW) 16:09:04 435.215
JUGNU 19 Jan 15:55:38 16:01:02 38° 177° (S) 16:06:29 437.505
BEESAT 3 19 Jan 15:56:56 16:00:31 39° 112° (ESE) 16:04:10 437.485
Cosmos 2491 19 Jan 15:58:57 16:02:59 14° 279° (W) 16:07:04 435.465 / 435.565
M-CUBED/EXP-1 PRIME 19 Jan 16:05:32 16:08:23 27° 103° (ESE) 16:11:11 437.505
O/OREOS (USA 219) 19 Jan 16:10:35 16:13:23 16° 65° (ENE) 16:16:10 437.305
CUBESAT XI-V 19 Jan 16:23:32 16:26:52 19° 96° (E) 16:30:11 437.345
DANDE 19 Jan 16:27:24 16:35:08 51° 268° (W) 16:43:02 436.750
KKS-1 19 Jan 16:27:37 16:31:55 50° 101° (E) 16:36:12 437.445
HORYU 2 19 Jan 16:29:38 16:32:49 20° 71° (ENE) 16:36:00 437.375
BEESAT 2 19 Jan 16:39:05 16:42:51 51° 114° (ESE) 16:46:42 435.950
AUBIESAT-1 19 Jan 16:42:45 16:46:02 88° 94° (E) 16:49:19 437.475
BRITE-PL 19 Jan 16:56:01 17:01:39 81° 258° (WSW) 17:07:23 437.365/2234.400
SO-50 19 Jan 16:57:01 17:00:03 18° 55° (NE) 17:03:05 436.795
GOMX 1 19 Jan 17:05:59 17:11:15 51° 75° (ENE) 17:16:23 467.674
NOAA 18 19 Jan 17:12:40 17:14:19 11° 65° (ENE) 17:15:58 137.9125
Cubesat XI-IV 19 Jan 17:14:08 17:18:13 23° 70° (ENE) 17:22:19 437.490
MOZHAYETS 4 19 Jan 17:19:34 17:20:57 11° 292° (WNW) 17:22:21
SRMSAT 19 Jan 17:22:49 17:28:08 33° 172° (S) 17:33:28 437.500
STARS 19 Jan 17:23:43 17:28:04 77° 284° (WNW) 17:32:26 437.465
NOAA 15 19 Jan 17:26:11 17:30:51 33° 71° (ENE) 17:35:32 137.62
BEESAT 3 19 Jan 17:36:52 17:38:16 12° 306° (NW) 17:39:40 437.485
JUGNU 19 Jan 17:44:25 17:49:43 34° 187° (S) 17:55:02 437.505
LilacSat-2 19 Jan 17:47:04 17:50:42 53° 77° (ENE) 17:54:23 437.200
O/OREOS (USA 219) 19 Jan 17:48:46 17:52:47 32° 257° (WSW) 17:56:49 437.305
DOVE 4 19 Jan 17:50:41 17:55:43 56° 76° (ENE) 18:00:30 437.250
CUBESAT XI-V 19 Jan 18:00:10 18:04:10 28° 288° (WNW) 18:08:08 437.345
HORYU 2 19 Jan 18:05:30 18:09:08 25° 262° (W) 18:12:46 437.375
KKS-1 19 Jan 18:07:30 18:07:57 10° 292° (WNW) 18:08:25 437.445
CUTE-I 19 Jan 18:09:45 18:15:04 89° 240° (WSW) 18:20:23 437.470
Cosmos 2499 19 Jan 18:21:39 18:25:12 13° 83° (E) 18:28:39 435.465 / 435.565
CANX-2 19 Jan 18:22:41 18:24:40 13° 70° (ENE) 18:26:39 2200.000
AIST 2 19 Jan 18:30:26 18:31:54 12° 107° (ESE) 18:33:21 435.215
HO-68 19 Jan 18:31:50 18:37:56 31° 67° (ENE) 18:44:02 435.675
SO-50 19 Jan 18:36:31 18:40:31 33° 249° (WSW) 18:44:30 436.795
GOMX 1 19 Jan 18:46:23 18:49:23 15° 265° (W) 18:52:21 467.674
GONETS M04 19 Jan 18:46:57 18:52:08 17° 82° (E) 18:57:19
NOAA 18 19 Jan 18:48:49 18:54:18 70° 258° (WSW) 18:59:47 137.9125
Cubesat XI-IV 19 Jan 18:53:21 18:58:02 32° 261° (W) 19:02:45 437.490
NOAA 15 19 Jan 19:06:36 19:10:33 22° 263° (W) 19:14:34 137.62
SRMSAT 19 Jan 19:11:27 19:16:58 38° 182° (S) 19:22:29 437.500
STRAND 1 19 Jan 19:21:01 19:25:56 44° 100° (E) 19:30:50 437.568
UWE-3 19 Jan 19:24:22 19:26:28 14° 70° (ENE) 19:28:34 435.000/436.395/437.385
CUTE 1.7 + AOD 2 19 Jan 19:26:50 19:31:03 77° 77° (ENE) 19:35:18 437.475
CINEMA 3 19 Jan 19:27:07 19:31:34 52° 260° (W) 19:35:50 145.822/145.860
DOVE 4 19 Jan 19:31:58 19:33:28 11° 266° (W) 19:34:58 437.250
JUGNU 19 Jan 19:34:00 19:38:18 20° 196° (SSW) 19:42:36 437.505
ZACube-1 19 Jan 19:45:11 19:47:18 14° 70° (ENE) 19:49:26 437.345
CANX-2 19 Jan 19:56:16 20:00:08 35° 262° (W) 20:04:02 2200.000
AIST 2 19 Jan 20:06:07 20:09:56 38° 300° (WNW) 20:13:48 435.215
Cosmos 2499 19 Jan 20:08:43 20:17:25 85° 275° (W) 20:25:32 435.465 / 435.565
SEEDS 19 Jan 20:09:04 20:13:05 46° 260° (W) 20:17:10 437.485
COMPASS 1 19 Jan 20:16:06 20:20:12 61° 259° (W) 20:24:22 437.405
HO-68 19 Jan 20:18:48 20:25:22 39° 260° (W) 20:32:00 435.675
Oscar 11 19 Jan 20:21:14 20:25:08 35° 74° (ENE) 20:29:04 145.826/435.025
CUBEBUG 2 19 Jan 20:28:17 20:32:20 45° 260° (W) 20:36:19 437.445
AAUSAT CUBESAT 2 19 Jan 20:28:21 20:32:26 57° 260° (W) 20:36:32 437.432
GONETS M04 19 Jan 20:39:20 20:47:58 70° 277° (W) 20:56:41
FUNcube-1 19 Jan 20:56:31 21:00:36 71° 258° (WSW) 21:04:44 145.935
ISS 19 Jan 20:57:12 20:59:23 17° 126° (SE) 21:01:34 145.825
UWE-3 19 Jan 20:58:54 21:02:37 31° 262° (W) 21:06:18 435.000/436.395/437.385
SRMSAT 19 Jan 21:00:41 21:05:47 29° 192° (SSW) 21:10:52 437.500
STRAND 1 19 Jan 21:01:40 21:04:41 16° 292° (WNW) 21:07:41 437.568
ZACube-1 19 Jan 21:19:37 21:23:16 30° 262° (W) 21:26:57 437.345
HUMSAT D 19 Jan 21:37:31 21:41:24 46° 76° (ENE) 21:45:21 437.325/437.525
DELFI C3 19 Jan 21:53:00 21:56:51 47° 260° (W) 22:00:44 145.870
Oscar 11 19 Jan 21:59:17 22:01:19 13° 266° (W) 22:03:20 145.826/435.025
PRISM 19 Jan 22:00:34 22:04:35 56° 284° (WNW) 22:08:33 437.425
Cosmos 2499 19 Jan 22:08:51 22:11:14 11° 288° (WNW) 22:13:36 435.465 / 435.565
UNISAT 6 19 Jan 22:08:57 22:13:13 43° 100° (E) 22:17:34 437.425
ESTCUBE 1 19 Jan 22:17:58 22:20:43 16° 70° (ENE) 22:23:28 437.505/2401.250
TIGRISAT 19 Jan 22:22:26 22:26:51 59° 101° (E) 22:31:21 435.000
BY70-1 19 Jan 22:23:30 22:26:00 29° 74° (ENE) 22:28:42 436.1900
ISS 19 Jan 22:32:54 22:35:40 25° 318° (NW) 22:38:27 145.825
RS-15 19 Jan 22:33:20 22:43:37 38° 105° (ESE) 22:54:18 29.354- 29.394
ANTELSAT 19 Jan 22:37:25 22:41:54 83° 282° (WNW) 22:46:28 437.575/2403.000
JAS-2 19 Jan 22:39:49 22:46:37 37° 99° (E) 22:53:41 435.910
SRMSAT 19 Jan 22:51:17 22:54:29 15° 199° (SSW) 22:57:41 437.500
SPROUT 19 Jan 23:07:57 23:09:59 13° 70° (ENE) 23:12:00 437.525
CUBEBUG 1 19 Jan 23:19:24 23:23:39 49° 75° (ENE) 23:27:54 437.445
AISAT 19 Jan 23:33:50 23:38:06 45° 74° (ENE) 23:42:21 437.250
QB50P1 19 Jan 23:46:12 23:50:17 47° 100° (E) 23:54:21 145.935-145.965
UNISAT 6 19 Jan 23:47:40 23:49:31 12° 291° (WNW) 23:51:23 437.425
POLYITAN 1 19 Jan 23:50:03 23:54:13 54° 101° (E) 23:58:22 437.675
QB50P2 19 Jan 23:51:15 23:55:27 61° 101° (E) 23:59:37 145.880/145.840
ESTCUBE 1 19 Jan 23:53:05 23:57:10 33° 261° (W) 00:01:16 437.505/2401.250
VELOX 1 20 Jan 00:07:03 00:11:29 71° 258° (WSW) 00:15:56 145.980
POPSAT HIP 1 20 Jan 00:12:56 00:17:08 76° 284° (WNW) 00:21:21 437.405
50 SAT 20 Jan 00:13:21 00:16:53 71° 259° (W) 00:20:28 437.505
YUBILEINY 20 Jan 00:18:27 00:22:21 13° 70° (ENE) 00:26:13 435.215
AO-85 20 Jan 00:19:25 00:23:07 44° 247° (WSW) 00:26:54 145.980
DUCHIFAT 1 20 Jan 00:24:42 00:28:51 63° 284° (WNW) 00:33:00 145.980
JAS-2 20 Jan 00:24:48 00:31:22 37° 289° (WNW) 00:38:19 435.910
NANOSAT C BR1 20 Jan 00:29:58 00:34:01 47° 284° (WNW) 00:38:03 145.865
PCSat 20 Jan 00:33:29 00:38:50 68° 111° (ESE) 00:44:13 145.827
TISAT 1 20 Jan 00:37:20 00:40:20 19° 71° (ENE) 00:43:20 437.305
DX 1 20 Jan 00:41:37 00:45:55 59° 259° (W) 00:50:14 434.975-435.025
SPROUT 20 Jan 00:41:38 00:45:32 35° 261° (W) 00:49:25 437.525
UKube-1 20 Jan 00:42:05 00:46:24 85° 256° (WSW) 00:50:44 .
RS-15 20 Jan 00:44:18 00:55:34 52° 303° (WNW) 01:07:27 29.354- 29.394
Cosmos 2491 20 Jan 00:58:19 01:03:27 17° 83° (E) 01:08:35 435.465 / 435.565
PHONESAT 2.4 20 Jan 01:01:52 01:04:07 60° 147° (SSE) 01:06:23 2401.200-2431.200
BUGSAT 1 20 Jan 01:02:09 01:06:08 67° 284° (WNW) 01:10:11 437.445
AISAT 20 Jan 01:13:38 01:14:40 11° 266° (W) 01:15:41 437.250
Oscar 19 20 Jan 01:27:01 01:31:57 45° 100° (E) 01:36:50 437.125/150
Gurwin Techsat 1B 20 Jan 01:36:15 01:40:43 27° 98° (E) 01:45:11 435.225
Cosmos 2504 20 Jan 01:55:27 02:01:53 33° 78° (ENE) 02:08:09 435.465 / 435.565
BEESAT 3 20 Jan 01:57:19 02:01:09 44° 61° (ENE) 02:04:56 437.485
ITUPSAT 1 20 Jan 01:58:54 02:03:07 32° 72° (ENE) 02:07:20 437.325
AIST 1 20 Jan 02:05:59 02:10:00 42° 268° (W) 02:13:59
YUBILEINY 20 Jan 02:11:13 02:20:03 88° 269° (W) 02:28:49 435.215
TISAT 1 20 Jan 02:12:27 02:15:46 23° 263° (W) 02:19:05 437.305
PCSat 20 Jan 02:20:22 02:22:39 13° 306° (NW) 02:24:56 145.827
BEESAT 20 Jan 02:33:20 02:38:05 86° 73° (ENE) 02:42:51 436.000
SWISSCUBE 20 Jan 02:34:55 02:39:39 80° 258° (WSW) 02:44:25 437.505
MOZHAYETS 4 20 Jan 02:35:31 02:38:57 21° 71° (ENE) 02:42:25
PHONESAT 2.4 20 Jan 02:37:27 02:38:23 12° 340° (NNW) 02:39:19 2401.200-2431.200
BEESAT 2 20 Jan 02:40:36 02:44:35 59° 62° (ENE) 02:48:32 435.950
M-CUBED/EXP-1 PRIME 20 Jan 02:45:17 02:48:05 17° 67° (ENE) 02:50:47 437.505
Cosmos 2491 20 Jan 02:50:39 02:59:19 71° 277° (W) 03:08:01 435.465 / 435.565
CUSAT 1 20 Jan 03:01:40 03:05:48 39° 89° (E) 03:11:09 437.405
RS-15 20 Jan 03:07:32 03:11:54 12° 329° (NNW) 03:16:19 29.354- 29.394
Oscar 19 20 Jan 03:07:51 03:10:49 16° 292° (WNW) 03:13:48 437.125/150
Gurwin Techsat 1B 20 Jan 03:16:08 03:20:30 26° 290° (WNW) 03:24:51 435.225
KKS-1 20 Jan 03:19:37 03:22:52 20° 71° (ENE) 03:26:06 437.445
AUBIESAT-1 20 Jan 03:21:10 03:25:10 34° 70° (ENE) 03:28:57 437.475
ITUPSAT 1 20 Jan 03:37:44 03:40:55 18° 264° (W) 03:44:06 437.325
ITAMSAT 1 20 Jan 03:47:31 03:52:43 73° 284° (WNW) 03:57:54 435.822/435.867
DANDE 20 Jan 03:48:19 03:50:50 20° 86° (E) 03:53:51 436.750
Cosmos 2504 20 Jan 03:48:52 03:55:00 31° 272° (W) 04:01:03 435.465 / 435.565
AO-7 20 Jan 04:02:19 04:10:42 79° 105° (ESE) 04:19:01 29.400- 29.500
MOZHAYETS 4 20 Jan 04:12:11 04:15:55 25° 263° (W) 04:19:40
YUBILEINY 20 Jan 04:13:03 04:15:30 11° 280° (W) 04:17:59 435.215
STARS 20 Jan 04:13:26 04:17:27 37° 74° (ENE) 04:21:29 437.465
M-CUBED/EXP-1 PRIME 20 Jan 04:18:09 04:22:16 34° 257° (WSW) 04:26:11 437.505
AIST 2 20 Jan 04:34:32 04:37:23 17° 56° (NE) 04:40:12 435.215
CUSAT 1 20 Jan 04:45:11 04:48:09 16° 292° (WNW) 04:51:33 437.405
CUBESAT XI-V 20 Jan 04:55:27 05:00:06 66° 260° (W) 05:04:47 437.345
KKS-1 20 Jan 04:55:30 04:59:12 25° 262° (W) 05:02:53 437.445
AUBIESAT-1 20 Jan 04:57:00 04:59:28 15° 259° (W) 05:01:53 437.475
ISS 20 Jan 05:07:10 05:08:21 11° 37° (NE) 05:09:32 145.825
BRITE-PL 20 Jan 05:09:09 05:13:48 58° 99° (E) 05:18:06 437.365/2234.400
GOMX 1 20 Jan 05:16:22 05:19:37 21° 96° (E) 05:22:46 467.674
LilacSat-2 20 Jan 05:30:09 05:30:24 10° 94° (E) 05:30:40 437.200
DANDE 20 Jan 05:31:43 05:33:34 13° 292° (WNW) 05:35:39 436.750
Cubesat XI-IV 20 Jan 05:38:47 05:42:02 16° 95° (E) 05:45:15 437.490
NOAA 15 20 Jan 05:48:44 05:52:49 22° 97° (E) 05:56:53 137.62
STARS 20 Jan 05:51:48 05:53:50 13° 265° (W) 05:55:52 437.465
AO-7 20 Jan 05:57:23 06:02:30 18° 301° (WNW) 06:07:37 29.400- 29.500
DOVE 4 20 Jan 05:57:32 06:00:46 22° 97° (E) 06:03:59 437.250
HORYU 2 20 Jan 06:02:12 06:06:39 78° 282° (WNW) 06:11:07 437.375
Cosmos 2499 20 Jan 06:10:39 06:15:26 19° 75° (ENE) 06:20:13 435.465 / 435.565
AIST 2 20 Jan 06:12:08 06:15:50 30° 249° (WSW) 06:19:32 435.215
O/OREOS (USA 219) 20 Jan 06:14:23 06:18:48 65° 106° (ESE) 06:23:14 437.305
STRAND 1 20 Jan 06:30:22 06:34:47 31° 72° (ENE) 06:39:13 437.568
CUTE-I 20 Jan 06:33:50 06:39:10 67° 102° (ESE) 06:44:28 437.470
ISS 20 Jan 06:41:52 06:45:01 48° 230° (SW) 06:48:09 145.825
GOMX 1 20 Jan 06:54:22 06:57:34 21° 289° (WNW) 07:00:40 467.674
GONETS M04 20 Jan 06:58:28 07:06:46 44° 80° (E) 07:15:01
LilacSat-2 20 Jan 07:01:11 07:04:44 35° 285° (WNW) 07:08:17 437.200
SO-50 20 Jan 07:03:40 07:07:43 28° 111° (ESE) 07:11:45 436.795
Cubesat XI-IV 20 Jan 07:17:08 07:22:10 44° 287° (WNW) 07:27:13 437.490
NOAA 18 20 Jan 07:17:57 07:23:25 88° 284° (WNW) 07:28:52 137.9125
CUTE 1.7 + AOD 2 20 Jan 07:19:15 07:22:38 22° 97° (E) 07:26:00 437.475
PHONESAT 2.4 20 Jan 07:20:44 07:22:47 28° 27° (NNE) 07:24:50 2401.200-2431.200
NOAA 15 20 Jan 07:27:51 07:32:31 32° 289° (WNW) 07:37:09 137.62
CINEMA 3 20 Jan 07:28:11 07:32:21 60° 100° (E) 07:36:40 145.822/145.860
DOVE 4 20 Jan 07:35:24 07:38:18 19° 288° (WNW) 07:41:11 437.250
RS-15 20 Jan 07:43:56 07:53:27 25° 45° (NE) 08:02:38 29.354- 29.394
CANX-2 20 Jan 07:47:38 07:51:55 65° 101° (E) 07:56:09 2200.000
HO-68 20 Jan 07:53:26 08:00:31 63° 102° (ESE) 08:07:35 435.675
SEEDS 20 Jan 07:59:35 08:03:41 47° 100° (E) 08:07:45 437.485
Cosmos 2499 20 Jan 08:02:00 08:08:47 51° 269° (W) 08:15:35 435.465 / 435.565
COMPASS 1 20 Jan 08:05:52 08:09:41 34° 98° (E) 08:13:29 437.405
STRAND 1 20 Jan 08:10:04 08:13:53 21° 263° (W) 08:17:44 437.568
CUTE-I 20 Jan 08:17:02 08:18:33 11° 294° (WNW) 08:20:06 437.470
Oscar 11 20 Jan 08:17:25 08:18:50 11° 94° (E) 08:20:14 145.826/435.025
AAUSAT CUBESAT 2 20 Jan 08:17:29 08:21:20 35° 98° (E) 08:25:08 437.432
CUBEBUG 2 20 Jan 08:25:09 08:29:29 60° 101° (E) 08:33:58 437.445
PRISM 20 Jan 08:42:47 08:46:37 36° 74° (ENE) 08:50:26 437.425
SO-50 20 Jan 08:44:22 08:48:07 23° 303° (WNW) 08:51:49 436.795
FUNcube-1 20 Jan 08:51:01 08:55:08 36° 99° (E) 08:59:17 145.935
UWE-3 20 Jan 08:54:12 08:58:37 83° 99° (E) 09:03:10 435.000/436.395/437.385
CUTE 1.7 + AOD 2 20 Jan 08:55:05 08:58:17 21° 288° (WNW) 09:01:27 437.475
PHONESAT 2.4 20 Jan 08:55:24 08:56:42 14° 219° (SW) 08:58:01 2401.200-2431.200
GONETS M04 20 Jan 08:55:45 09:03:09 31° 274° (W) 09:10:36
UNISAT 6 20 Jan 09:02:32 09:05:06 16° 71° (ENE) 09:07:40 437.425
ZACube-1 20 Jan 09:13:40 09:18:05 81° 101° (E) 09:22:36 437.345
TIGRISAT 20 Jan 09:15:17 09:18:29 21° 72° (ENE) 09:21:39 435.000
